Weather in Varzuga

Russia / Murmansk Oblast     66°23′47″N   36°36′20″E
temp.,
°C
wind,
m/s
gust,
m/s
humid.,
%
clouds,
%
prec.,
mm/h
press.,
hPa
HPBL,
m
23 april, fri
fri2300:000sw2698100 0.1 1005247
03:00+1wsw26100100 0.1 1007264
06:000w12100100 0.0 100969
09:00+1nne249971 0.0 1012257
12:00+1ene4598100 0.0 1013392
15:00+2ene51097100 0.1 1013442
18:00+2ene71492100 0.0 1012423
21:00+2e92084100 0.0 1009539
24 april, sat
sat2400:00+4ese71885100 0.1 1008581
03:00+2sse51098100 0.8 1008340
06:00+2sse26100100 0.0 1010185
09:00+2sse26100100 0.0 1011226
12:00+4sse2391100 0.0 1012439
15:00+5ene2392100 0.1 1012421
18:00+2nne4999100 1.0 1011363
21:00+3ne41099100 1.1 1010264
25 april, sun
sun2500:00+3e389354 0.1 1009141
03:00+4ese4118457 0.1 1009250
06:00+4ese398986 0.0 1009239
09:00+6ese378791 0.0 1009329
12:00+8e347981 0.0 1009546
15:00+7ene468320 0.1 1009405
18:00+6ne48835 0.1 1009305
21:00+4ne498696 0.1 1009187
26 april, mon
mon2600:00+3nne41088100 0.0 1009248
03:00+1nne51189100 0.0 1009300
06:00+1nne51290100 0.0 1008395
09:00+3nne61191100 0.0 1008508
12:00+2nne51197100 1.2 1007642
15:00+3nne61196100 1.5 1007582
18:00+3nne51095100 0.0 1006437
21:00+2nne51097100 0.0 1006398
27 april, tue
tue2700:00+2nne4997100 0.0 1006413
03:00+2nne4997100 0.0 1005430
06:00+1nne5995100 0.0 1005476
09:00+2ne51194100 0.0 1005569
12:00+4ne61078100 0.1 1005833
15:00+3ne71078100 0.1 1006948
18:00+1ne71295100 0.9 1008811
21:000ne71279100 1.7 1009818